N420HE CYWG-CYYZ

Flight info

Callsign N420HE
Flight time N/A
Altitude 39000
Route RORMA DCT AXOMA DCT SIDPO DCT DEGVA DCT AGLIN DCT OTNIK BOXUM7
Aircraft HDJT/L-SABDGRWY/H

Departure

Time 2026-05-06 20:06
Airport Winnipeg / James Armstrong Richardson International Airport (CYWG)

Arrival

Time N/A
Airport Toronto Pearson International Airport (CYYZ)
Time Latitude Longitude Altitude Speed Heading
2026-05-06 19:49 49.89414 -97.23416 775 ft 0 kts 324°
2026-05-06 20:02 49.89419 -97.23421 775 ft 3 kts 336°
2026-05-06 20:03 49.89453 -97.23393 775 ft 9 kts 33°
2026-05-06 20:03 49.89508 -97.23328 775 ft 11 kts 70°
2026-05-06 20:03 49.89501 -97.23188 776 ft 14 kts 96°
2026-05-06 20:03 49.89488 -97.23030 778 ft 16 kts 97°
2026-05-06 20:04 49.89482 -97.22952 777 ft 0 kts 96°
2026-05-06 20:04 49.89482 -97.22950 777 ft 0 kts 96°
2026-05-06 20:05 49.89480 -97.22923 777 ft 7 kts 97°
2026-05-06 20:05 49.89509 -97.22831 778 ft 13 kts 25°
2026-05-06 20:05 49.89593 -97.22888 779 ft 21 kts 319°
2026-05-06 20:05 49.89872 -97.23271 779 ft 86 kts 318°
2026-05-06 20:06 49.90459 -97.24082 946 ft 127 kts 319°
2026-05-06 20:06 49.91108 -97.24988 1657 ft 128 kts 318°
2026-05-06 20:06 49.91826 -97.25969 2171 ft 150 kts 318°
2026-05-06 20:06 49.92722 -97.27184 2565 ft 188 kts 318°
2026-05-06 20:07 49.93764 -97.28602 3199 ft 209 kts 318°
2026-05-06 20:07 49.94913 -97.30173 3916 ft 230 kts 317°
2026-05-06 20:07 49.96156 -97.31881 4740 ft 246 kts 319°
2026-05-06 20:07 49.97685 -97.33116 5570 ft 261 kts 345°
2026-05-06 20:08 49.99467 -97.32997 6431 ft 258 kts 15°
2026-05-06 20:08 50.00989 -97.31455 7219 ft 276 kts 44°
2026-05-06 20:08 50.01979 -97.28820 8102 ft 290 kts 66°
2026-05-06 20:08 50.02274 -97.25710 9202 ft 291 kts 93°
2026-05-06 20:09 50.01853 -97.22617 10063 ft 297 kts 102°
2026-05-06 20:09 50.01347 -97.19486 10778 ft 300 kts 101°
2026-05-06 20:09 50.00874 -97.16306 11489 ft 304 kts 101°
2026-05-06 20:09 50.00381 -97.13087 12191 ft 308 kts 102°
2026-05-06 20:10 49.99862 -97.09839 12883 ft 312 kts 102°
2026-05-06 20:10 49.99345 -97.06547 13558 ft 315 kts 102°
2026-05-06 20:10 49.98831 -97.03206 14183 ft 319 kts 102°
2026-05-06 20:10 49.98304 -96.99846 14788 ft 321 kts 102°
2026-05-06 20:11 49.97768 -96.96466 15372 ft 324 kts 102°
2026-05-06 20:11 49.97233 -96.93044 15948 ft 326 kts 102°
2026-05-06 20:11 49.96695 -96.89608 16533 ft 329 kts 102°
2026-05-06 20:11 49.96141 -96.86144 17083 ft 332 kts 102°
2026-05-06 20:12 49.95595 -96.82698 17628 ft 334 kts 102°
2026-05-06 20:12 49.95042 -96.79180 18164 ft 337 kts 102°
2026-05-06 20:12 49.94477 -96.75640 18644 ft 339 kts 102°
2026-05-06 20:12 49.93967 -96.72067 19091 ft 340 kts 95°
2026-05-06 20:13 49.93942 -96.68400 19541 ft 339 kts 86°
2026-05-06 20:13 49.93942 -96.64721 19977 ft 342 kts 90°
2026-05-06 20:13 49.93837 -96.61015 20409 ft 344 kts 90°
2026-05-06 20:13 49.93789 -96.57289 20831 ft 346 kts 88°
2026-05-06 20:14 49.93801 -96.53541 21259 ft 348 kts 88°
2026-05-06 20:14 49.93774 -96.49767 21685 ft 350 kts 89°
2026-05-06 20:14 49.93708 -96.45974 22103 ft 352 kts 89°
2026-05-06 20:14 49.93669 -96.42156 22526 ft 354 kts 88°
2026-05-06 20:15 49.93647 -96.38316 22933 ft 356 kts 88°
2026-05-06 20:15 49.93607 -96.34457 23346 ft 358 kts 88°
2026-05-06 20:15 49.93569 -96.30579 23720 ft 361 kts 88°
2026-05-06 20:15 49.93540 -96.26726 24067 ft 362 kts 88°
2026-05-06 20:16 49.93504 -96.22803 24406 ft 364 kts 88°
2026-05-06 20:16 49.93463 -96.18870 24744 ft 365 kts 88°
2026-05-06 20:16 49.93423 -96.14924 25082 ft 367 kts 88°
2026-05-06 20:16 49.93385 -96.10951 25414 ft 368 kts 88°
2026-05-06 20:17 49.93340 -96.06977 25864 ft 366 kts 88°
2026-05-06 20:17 49.93294 -96.02969 25891 ft 377 kts 88°
2026-05-06 20:17 49.93251 -95.98851 25938 ft 385 kts 88°
2026-05-06 20:17 49.93201 -95.94692 26231 ft 386 kts 88°
2026-05-06 20:18 49.93147 -95.90525 26489 ft 387 kts 88°
2026-05-06 20:18 49.93097 -95.86339 26751 ft 388 kts 88°
2026-05-06 20:18 49.93046 -95.82142 27008 ft 390 kts 88°
2026-05-06 20:18 49.92986 -95.77930 27251 ft 391 kts 88°
2026-05-06 20:19 49.92930 -95.73703 27497 ft 393 kts 88°
2026-05-06 20:19 49.92871 -95.69459 27741 ft 394 kts 88°
2026-05-06 20:19 49.92811 -95.65203 27985 ft 395 kts 88°
2026-05-06 20:19 49.92746 -95.60931 28230 ft 397 kts 88°
2026-05-06 20:20 49.92681 -95.56643 28461 ft 398 kts 88°
2026-05-06 20:20 49.92617 -95.52342 28695 ft 399 kts 88°
2026-05-06 20:20 49.92549 -95.48030 28921 ft 401 kts 89°
2026-05-06 20:20 49.92477 -95.43700 29152 ft 402 kts 89°
2026-05-06 20:21 49.92404 -95.39354 29371 ft 403 kts 89°
2026-05-06 20:21 49.92333 -95.34998 29593 ft 405 kts 89°
2026-05-06 20:21 49.92254 -95.30628 29806 ft 406 kts 89°
2026-05-06 20:21 49.92175 -95.26241 30010 ft 407 kts 89°
2026-05-06 20:22 49.92097 -95.21885 30196 ft 409 kts 89°
2026-05-06 20:22 49.92013 -95.17467 30336 ft 411 kts 89°
2026-05-06 20:22 49.91927 -95.13025 30483 ft 412 kts 89°
2026-05-06 20:22 49.91841 -95.08572 30616 ft 414 kts 89°
2026-05-06 20:23 49.91755 -95.04102 30776 ft 414 kts 89°
2026-05-06 20:23 49.91662 -94.99634 30954 ft 414 kts 89°
2026-05-06 20:23 49.91558 -94.95160 31107 ft 415 kts 91°
2026-05-06 20:23 49.91124 -94.90716 31263 ft 418 kts 102°
2026-05-06 20:24 49.90176 -94.86444 31416 ft 421 kts 112°
2026-05-06 20:24 49.88937 -94.82329 31579 ft 421 kts 114°
2026-05-06 20:24 49.87721 -94.78191 31724 ft 421 kts 111°
2026-05-06 20:24 49.86652 -94.73967 31868 ft 421 kts 109°
2026-05-06 20:25 49.85573 -94.69747 32020 ft 422 kts 111°
2026-05-06 20:25 49.84385 -94.65584 32165 ft 422 kts 113°
2026-05-06 20:25 49.83212 -94.61477 32309 ft 422 kts 111°
2026-05-06 20:25 49.82096 -94.57274 32451 ft 422 kts 110°
2026-05-06 20:26 49.80980 -94.53075 32589 ft 422 kts 111°
2026-05-06 20:26 49.79810 -94.48899 32720 ft 423 kts 112°
2026-05-06 20:26 49.78639 -94.44727 32871 ft 423 kts 112°
2026-05-06 20:26 49.77498 -94.40533 33016 ft 423 kts 111°
2026-05-06 20:27 49.76355 -94.36341 33155 ft 423 kts 112°
2026-05-06 20:27 49.75188 -94.32161 33292 ft 423 kts 112°
2026-05-06 20:27 49.74022 -94.27987 33423 ft 423 kts 112°
2026-05-06 20:27 49.72866 -94.23800 33560 ft 423 kts 112°
2026-05-06 20:28 49.71708 -94.19617 33698 ft 423 kts 112°
2026-05-06 20:28 49.70540 -94.15442 33845 ft 424 kts 112°
2026-05-06 20:28 49.69369 -94.11259 33966 ft 424 kts 112°
2026-05-06 20:28 49.68206 -94.07085 34084 ft 424 kts 112°
2026-05-06 20:29 49.67037 -94.02908 34192 ft 424 kts 112°
2026-05-06 20:29 49.65861 -93.98727 34294 ft 424 kts 112°
2026-05-06 20:29 49.64689 -93.94560 34398 ft 424 kts 112°
2026-05-06 20:29 49.63516 -93.90391 34502 ft 424 kts 112°
2026-05-06 20:30 49.59998 -93.77943 34787 ft 424 kts 112°
2026-05-06 20:31 49.57634 -93.69614 34975 ft 424 kts 113°
2026-05-06 20:31 49.55266 -93.61297 35161 ft 424 kts 113°
2026-05-06 20:32 49.52888 -93.52980 35340 ft 424 kts 113°
2026-05-06 20:32 49.50503 -93.44665 35509 ft 424 kts 113°
2026-05-06 20:33 49.48113 -93.36362 35687 ft 424 kts 113°
2026-05-06 20:33 49.45734 -93.28125 35849 ft 425 kts 113°
2026-05-06 20:34 49.44530 -93.23964 35931 ft 425 kts 114°
2026-05-06 20:34 49.42118 -93.15658 36095 ft 425 kts 114°
2026-05-06 20:34 49.40914 -93.11521 36170 ft 425 kts 114°
2026-05-06 20:35 49.38495 -93.03233 36318 ft 425 kts 114°
2026-05-06 20:35 49.36069 -92.94950 36464 ft 426 kts 114°
2026-05-06 20:36 49.33639 -92.86678 36617 ft 426 kts 114°
2026-05-06 20:36 49.31200 -92.78405 36762 ft 426 kts 114°
2026-05-06 20:37 49.29168 -92.71533 36867 ft 426 kts 114°
2026-05-06 20:37 49.26318 -92.61929 37032 ft 426 kts 114°
2026-05-06 20:38 49.23857 -92.53668 37165 ft 426 kts 114°
2026-05-06 20:38 49.21387 -92.45399 37291 ft 427 kts 115°
2026-05-06 20:39 49.18911 -92.37145 37422 ft 427 kts 115°
2026-05-06 20:39 49.16446 -92.28951 37547 ft 427 kts 115°
2026-05-06 20:40 49.13959 -92.20715 37660 ft 427 kts 115°
2026-05-06 20:40 49.11462 -92.12469 37786 ft 427 kts 115°
2026-05-06 20:41 49.09383 -92.05627 37883 ft 428 kts 115°
2026-05-06 20:41 49.06871 -91.97383 37986 ft 428 kts 115°
2026-05-06 20:42 49.04354 -91.89153 38099 ft 428 kts 115°
2026-05-06 20:42 49.01830 -91.80927 38210 ft 428 kts 116°
2026-05-06 20:43 48.99299 -91.72705 38316 ft 429 kts 116°
2026-05-06 20:43 48.96764 -91.64495 38421 ft 429 kts 116°
2026-05-06 20:44 48.94217 -91.56275 38518 ft 429 kts 116°
2026-05-06 20:44 48.91683 -91.48128 38610 ft 429 kts 116°
2026-05-06 20:45 48.89123 -91.39919 38690 ft 430 kts 116°
2026-05-06 20:45 48.86557 -91.31723 38768 ft 430 kts 116°
2026-05-06 20:46 48.83987 -91.23534 38847 ft 430 kts 116°
2026-05-06 20:46 48.81406 -91.15347 38915 ft 430 kts 116°
2026-05-06 20:47 48.78824 -91.07173 38962 ft 429 kts 117°
2026-05-06 20:47 48.76247 -90.99047 38959 ft 431 kts 117°
2026-05-06 20:48 48.73641 -90.90854 38958 ft 432 kts 117°
2026-05-06 20:48 48.71022 -90.82649 38959 ft 433 kts 117°
2026-05-06 20:49 48.68396 -90.74448 38955 ft 433 kts 117°
2026-05-06 20:49 48.66207 -90.67628 38956 ft 433 kts 117°
2026-05-06 20:50 48.63122 -90.58054 38955 ft 433 kts 117°
2026-05-06 20:50 48.60471 -90.49860 38952 ft 434 kts 117°
2026-05-06 20:51 48.57817 -90.41676 38953 ft 434 kts 117°
2026-05-06 20:51 48.55156 -90.33499 38951 ft 434 kts 117°
2026-05-06 20:52 48.52485 -90.25318 38951 ft 434 kts 117°
2026-05-06 20:52 48.49810 -90.17151 38949 ft 434 kts 117°
2026-05-06 20:53 48.47127 -90.08988 38949 ft 435 kts 118°
2026-05-06 20:53 48.44453 -90.00874 38947 ft 435 kts 118°
2026-05-06 20:54 48.41794 -89.92835 38944 ft 435 kts 118°
2026-05-06 20:54 48.39091 -89.84683 38942 ft 435 kts 118°
2026-05-06 20:55 48.36382 -89.76546 38938 ft 435 kts 118°
2026-05-06 20:55 48.33666 -89.68410 38934 ft 435 kts 118°
2026-05-06 20:56 48.30946 -89.60290 38930 ft 435 kts 118°
2026-05-06 20:56 48.28220 -89.52177 38931 ft 435 kts 118°
2026-05-06 20:57 48.25487 -89.44064 38928 ft 436 kts 117°
2026-05-06 20:57 48.23094 -89.35703 38928 ft 437 kts 114°
2026-05-06 20:58 48.20727 -89.27388 38929 ft 436 kts 115°
2026-05-06 20:58 48.18331 -89.19013 38929 ft 437 kts 115°
2026-05-06 20:59 48.15933 -89.10649 38931 ft 436 kts 115°
2026-05-06 20:59 48.13528 -89.02298 38933 ft 437 kts 115°
2026-05-06 21:00 48.11116 -88.93944 38936 ft 437 kts 115°
2026-05-06 21:00 48.08700 -88.85612 38939 ft 437 kts 115°
2026-05-06 21:01 48.06279 -88.77284 38941 ft 437 kts 115°
2026-05-06 21:01 48.03851 -88.68967 38938 ft 437 kts 115°
2026-05-06 21:02 48.01431 -88.60701 38938 ft 437 kts 115°
2026-05-06 21:02 47.98989 -88.52390 38944 ft 437 kts 115°
2026-05-06 21:03 47.96539 -88.44080 38944 ft 437 kts 116°
2026-05-06 21:03 47.94085 -88.35784 38947 ft 437 kts 116°
2026-05-06 21:04 47.91624 -88.27493 38949 ft 437 kts 116°
2026-05-06 21:04 47.89156 -88.19206 38948 ft 437 kts 116°
2026-05-06 21:05 47.86680 -88.10919 38955 ft 438 kts 116°
2026-05-06 21:05 47.84197 -88.02641 38955 ft 438 kts 116°
2026-05-06 21:06 47.81723 -87.94416 38961 ft 438 kts 116°
2026-05-06 21:06 47.79227 -87.86146 38957 ft 438 kts 116°
2026-05-06 21:07 47.76723 -87.77878 38959 ft 438 kts 116°
2026-05-06 21:07 47.74214 -87.69621 38959 ft 438 kts 116°
2026-05-06 21:08 47.71698 -87.61368 38959 ft 439 kts 116°
2026-05-06 21:08 47.69190 -87.53170 38956 ft 439 kts 116°
2026-05-06 21:09 47.66659 -87.44922 38959 ft 439 kts 117°
2026-05-06 21:09 47.64123 -87.36686 38957 ft 439 kts 117°
2026-05-06 21:10 47.61582 -87.28460 38958 ft 439 kts 117°
2026-05-06 21:10 47.59031 -87.20229 38960 ft 439 kts 117°
2026-05-06 21:11 47.56471 -87.11996 38960 ft 439 kts 117°
2026-05-06 21:11 47.53909 -87.03784 38966 ft 439 kts 117°
2026-05-06 21:12 47.51340 -86.95577 38966 ft 440 kts 117°
2026-05-06 21:12 47.48777 -86.87416 38963 ft 440 kts 117°
2026-05-06 21:13 47.46193 -86.79214 38964 ft 440 kts 117°
2026-05-06 21:13 47.43603 -86.71018 38970 ft 440 kts 117°
2026-05-06 21:14 47.41003 -86.62819 38963 ft 440 kts 118°
2026-05-06 21:14 47.38399 -86.54632 38965 ft 441 kts 118°
2026-05-06 21:15 47.35789 -86.46454 38971 ft 441 kts 118°
2026-05-06 21:15 47.33169 -86.38270 38966 ft 441 kts 118°
2026-05-06 21:16 47.30562 -86.30156 38966 ft 441 kts 118°
2026-05-06 21:16 47.27930 -86.21986 38966 ft 441 kts 118°
2026-05-06 21:17 47.25290 -86.13820 38972 ft 442 kts 118°
2026-05-06 21:17 47.22641 -86.05651 38970 ft 442 kts 118°
2026-05-06 21:18 47.19987 -85.97491 38976 ft 442 kts 118°
2026-05-06 21:18 47.17336 -85.89370 38971 ft 443 kts 119°
2026-05-06 21:19 47.14666 -85.81214 38972 ft 443 kts 119°
2026-05-06 21:19 47.11987 -85.73057 38974 ft 443 kts 119°
2026-05-06 21:20 47.09315 -85.64946 38971 ft 443 kts 119°
2026-05-06 21:20 47.06622 -85.56800 38971 ft 444 kts 120°
2026-05-06 21:21 47.03922 -85.48655 38970 ft 444 kts 120°
2026-05-06 21:21 47.01215 -85.40517 38972 ft 444 kts 120°
2026-05-06 21:22 46.98519 -85.32434 38972 ft 445 kts 120°
2026-05-06 21:22 46.95797 -85.24303 38971 ft 445 kts 120°
2026-05-06 21:23 46.93065 -85.16165 38969 ft 445 kts 120°
2026-05-06 21:23 46.90329 -85.08042 38966 ft 445 kts 120°
2026-05-06 21:24 46.87586 -84.99920 38968 ft 446 kts 121°
2026-05-06 21:24 46.84832 -84.91796 38966 ft 446 kts 121°
2026-05-06 21:25 46.82072 -84.83675 38974 ft 446 kts 121°
2026-05-06 21:25 46.79304 -84.75559 38973 ft 447 kts 121°
2026-05-06 21:26 46.76528 -84.67442 38967 ft 447 kts 121°
2026-05-06 21:26 46.73742 -84.59323 38966 ft 447 kts 121°
2026-05-06 21:27 46.70950 -84.51212 38969 ft 448 kts 121°
2026-05-06 21:27 46.68168 -84.43153 38966 ft 448 kts 122°
2026-05-06 21:28 46.65360 -84.35044 38961 ft 449 kts 122°
2026-05-06 21:28 46.62543 -84.26936 38956 ft 449 kts 122°
2026-05-06 21:29 46.59715 -84.18820 38954 ft 450 kts 122°
2026-05-06 21:29 46.56878 -84.10702 38954 ft 450 kts 122°
2026-05-06 21:30 46.54513 -84.03960 38955 ft 450 kts 122°
2026-05-06 21:30 46.51666 -83.95853 38950 ft 451 kts 122°
2026-05-06 21:31 46.48808 -83.87747 38947 ft 451 kts 122°
2026-05-06 21:31 46.45936 -83.79632 38941 ft 452 kts 122°
2026-05-06 21:32 46.43062 -83.71526 38936 ft 452 kts 123°
2026-05-06 21:32 46.38368 -83.59783 38948 ft 445 kts 132°
2026-05-06 21:33 46.34792 -83.52523 38940 ft 446 kts 131°
2026-05-06 21:33 46.31214 -83.45190 38930 ft 446 kts 132°
2026-05-06 21:34 46.27604 -83.37879 38926 ft 447 kts 132°
2026-05-06 21:34 46.24002 -83.30555 38928 ft 447 kts 132°
2026-05-06 21:35 46.20388 -83.23257 38927 ft 447 kts 132°
2026-05-06 21:35 46.16775 -83.15961 38925 ft 447 kts 132°
2026-05-06 21:36 46.13168 -83.08708 38928 ft 447 kts 132°
2026-05-06 21:36 46.09542 -83.01426 38931 ft 447 kts 133°
2026-05-06 21:37 46.05909 -82.94156 38929 ft 447 kts 133°
2026-05-06 21:37 46.02271 -82.86892 38935 ft 447 kts 133°
2026-05-06 21:38 45.98626 -82.79633 38934 ft 448 kts 133°
2026-05-06 21:38 45.94970 -82.72372 38936 ft 448 kts 133°
2026-05-06 21:39 45.91313 -82.65127 38937 ft 448 kts 133°
2026-05-06 21:39 45.87425 -82.58214 38937 ft 441 kts 141°
2026-05-06 21:40 45.83227 -82.51777 38935 ft 444 kts 138°
2026-05-06 21:40 45.79259 -82.44972 38937 ft 444 kts 139°